Regional Weather Roundup
Issued by NWS

Home | Current Version | Previous Version | Graphics & Text | Print | Product List | Glossary On
Versions: 1 2 3 4 5 6 7 8 9 10 11 12 13 14 15 16 17 18 19 20 21 22 23 24 25 26 27 28 29 30 31 32 33 34 35 36 37 38 39 40 41 42 43 44 45 46 47 48 49 50
000
ASUS45 KBOU 211907
RWRCO

WEATHER ROUNDUP FOR COLORADO
NATIONAL WEATHER SERVICE DENVER/BOULDER CO
1200 PM MST SAT JAN 21 2017

NOTE: "FAIR" INDICATES FEW OR NO CLOUDS BELOW 12000 FEET WITH NO
SIGNIFICANT WEATHER AND/OR OBSTRUCTIONS TO VISIBILITY.

COZ001>005-013-030-031-212000-
...NORTHWEST COLORADO...

CITY           SKY/WX    TMP DP  RH WIND       PRES   REMARKS
CRAIG          CLOUDY    27  18  69 W3        29.39S
HAYDEN         PTSUNNY   25  16  68 NE7       29.38S WCI  17
MEEKER         LGT SNOW  29  25  85 CALM      29.38S FOG
MOUNT WERNER   NOT AVBL
STEAMBOAT SPGS CLOUDY    25  17  70 CALM      29.38F
WALDEN           N/A     14   9  79 SE6       29.38F WCI   5
$$

COZ006>008-011-212000-
...WEST CENTRAL VALLEYS...

CITY           SKY/WX    TMP DP  RH WIND       PRES   REMARKS
GRAND JUNCTION CLOUDY    34  33  96 E7        29.41S WCI  28
MONTROSE       SNOW      30  29  96 NW6       29.42R VSB 1/2 WCI  24
EAGLE          CLOUDY    25  14  63 CALM      29.43F
RIFLE          LGT SNOW  32  29  88 CALM      29.40S FOG
DELTA          CLOUDY    37  34  86 W5        29.42R
NUCLA          CLOUDY    34  32  93 SW5       29.45R WCI  30
$$

COZ017>023-064>068-212000-
...SOUTHWEST COLORADO...

CITY           SKY/WX    TMP DP  RH WIND       PRES   REMARKS
DURANGO        LGT SNOW  29  26  89 W18       29.42R FOG     WCI  16
CORTEZ         LGT SNOW  32  30  92 S16       29.47R FOG     WCI  21
PAGOSA SPRINGS LGT SNOW  28  27  94 SW12G22   29.40R VSB 1   WCI  18
TELLURIDE      NOT AVBL
WOLF CREEK PAS CLOUDY    14  14 100 S15       29.39S WCI  -1
$$

COZ009-010-012-014-032>034-037-058>063-212000-
...CENTRAL COLORADO...

CITY           SKY/WX    TMP DP  RH WIND       PRES   REMARKS
ASPEN          PTSUNNY   29  16  58 N7        29.35S WCI  22
BUENA VISTA    PTSUNNY   29  16  58 CALM      29.37F
COPPER MTN     CLOUDY    23  10  58 SW3       29.35F
BERTHOUD PASS  NOT AVBL
COTTONWOOD PAS CLOUDY    27  18  69 CALM      29.36S
GUNNISON       FAIR      17  10  74 W5        29.40F WCI  10
KREMMLING      FLURRIES N/A N/A N/A CALM      29.44F
LEADVILLE      FAIR      21   8  57 N3        29.34F
MONARCH PASS   CLOUDY    18  16  93 CALM      29.45F
SALIDA         CLOUDY    31  18  57 CALM      29.44F
SUNLIGHT       LGT SNOW  21  18  86 MISG      29.40S
WILKERSON PASS FAIR      23  14  68 S5        29.39F WCI  17
$$

COZ069>075-212000-
...SAN LUIS VALLEY/SANGRE DE CRISTO MOUNTAINS...

CITY           SKY/WX    TMP DP  RH WIND       PRES   REMARKS
ALAMOSA        CLOUDY    26  20  77 SE3       29.36F
LA VETA PASS   CLOUDY    27  21  80 NE17G30   29.34F WCI  14
SAGUACHE       CLOUDY    28  23  80 CALM      29.38F
$$

COZ035-036-038>040-212000-
...NORTHERN COLORADO FRONT RANGE...

CITY           SKY/WX    TMP DP  RH WIND       PRES   REMARKS
DENVER INTL AP PTSUNNY   37  25  61 VRB7      29.36F
DMNS CITY PARK   N/A     38  24  55 N9        29.36F
AURORA         PTSUNNY   37  24  59 NW5       29.36F
FRONT RANGE AP PTSUNNY   37  27  65 NW3       29.37F
ERIE MUNI ARPT FAIR      38  25  59 N8        29.37F
BOULDER MUN AP FAIR      36  23  60 CALM      29.36F
CENTENNIAL     FAIR      37  22  54 N6        29.35F
BROOMFIELD     PTSUNNY   37  23  56 N7        29.37F
FORT COLLINS   FAIR      34  28  80 N7        29.38F WCI  28
LONGMONT       FAIR      39  25  58 CALM      29.39F
$$

COZ041-046-047-076>085-087-088-212000-
...PIKES PEAK/PALMER DIVIDE AND SOUTHERN FOOTHILLS...

CITY           SKY/WX    TMP DP  RH WIND       PRES   REMARKS
COLO. SPRINGS  PTSUNNY   39  20  46 E7        29.34F
A. F. ACADEMY  FAIR      38  18  44 CALM      29.32F
SCHRIEVER AFB  NOT AVBL
ELLICOTT       FAIR     N/A N/A N/A E8        29.33F
FALCON         FAIR      38  20  48 SE5       29.35F
FORT CARSON    NOT AVBL
LIMON          FAIR      39  26  59 SE14      29.37F
MONUMENT HILL  PTSUNNY   34  12  40 CALM      29.35F
TRINIDAD       CLOUDY    35  23  61 W3        29.32F
$$

COZ042>045-048>051-090-091-212000-
...NORTHEAST COLORADO...

CITY           SKY/WX    TMP DP  RH WIND       PRES   REMARKS
GREELEY ARPT   FAIR      34  28  79 NW3       29.40F
AKRON          FAIR      41  25  53 SE13      29.39F
BURLINGTON     FAIR      42  33  70 SE12      29.38F
WRAY           NOT AVBL
STERLING       FAIR      39  30  70 NE5       29.40F
HOLYOKE        FAIR      46  27  46 CALM      29.42F
FORT MORGAN    FAIR      40  27  60 SE5       29.40F
$$

COZ086-089-092>099-212000-
...SOUTHEAST COLORADO...

CITY           SKY/WX    TMP DP  RH WIND       PRES   REMARKS
PUEBLO         PTSUNNY   34  31  88 CALM      29.35F
LA JUNTA       CLOUDY    31  29  92 W12       29.36F WCI  22
LAMAR          FAIR      36  31  82 W3        29.34F
SPRINGFIELD      N/A     44  30  57 E3        29.30F
$$



USA.gov is the U.S. government's official web portal to all federal, state and local government web resources and services.